Content
SEND FEEDBACK

Daily
Averages
Monthly
Summary
United States of America

ST. LOUIS, MISSOURI


Home > North America > United States > Missouri
Elevation: 535 feet     Latitude: 38 45N     Longitude: 090 22W

WEATHER
 
SELECT A DAY
Number of Records: 196,649;   Date Range: 1/1/95 - 9/18/14
 
SHARE

PRINT THIS DATA

[ ← Previous Day ]
WEATHER ALMANAC - MAY 14, 2013
[ Next Day → ]
[ °C ]   °F
Weather ElementAverageHighLow
Temperature76.1 °F91.9 °F (4:54 pm)51.1 °F (5:54 am)
Dewpoint49.8 °F55 °F (10:54 am)45 °F (1:54 am)
Humidity44.2 %86 % (5:54 am)24 % (5:54 pm)
Barometer29.86 in29.96 in (1:54 am)29.78 in (6:54 pm)
Wind Speed10.5 mph18.4 mph (2:54 pm)
Wind Gust25.3 mph (2:54 pm)
Weather ElementAverage
Visibility10 mi
Wind DirectionS (180 °)

Weather ElementTotal
Precipitation---
Cooling Degree Days6.5 (Base 65)
Growing Degree Days21.5 (Base 50)
Averaged from 23 records on May 14, 2013
WEATHER CONDITIONS BREAKOUT
WIND DIRECTION BREAKOUT
WEATHER BY HOUR - MAY 14, 2013
[ °C ]   °F
Local TimeTemperatureDewpointHumidityBarometerVisibilityWind DirectionWind SpeedGust SpeedPrecipitationEventsConditions
1:54 AM62.1 °F45.0 °F53 %29.96 in10.0 miCalmClear
2:54 AM57.0 °F46.9 °F69 %29.95 in10.0 miCalmClear
3:54 AM54.0 °F46.9 °F77 %29.94 in10.0 miEast (80°)3.5 mphClear
4:54 AM52.0 °F46.9 °F83 %29.93 in10.0 miCalmClear
5:54 AM51.1 °F46.9 °F86 %29.92 in10.0 miCalmScattered Clouds
6:54 AM53.1 °F48.9 °F86 %29.92 in10.0 miCalmScattered Clouds
7:54 AM66.9 °F52.0 °F59 %29.90 in10.0 miSW (220°)8.1 mphClear
8:54 AM72.0 °F53.1 °F51 %29.89 in10.0 miWSW (240°)8.1 mphClear
9:54 AM75.9 °F53.1 °F45 %29.88 in10.0 miWSW (250°)13.8 mph19.6 mphPartly Cloudy
10:54 AM82.0 °F55.0 °F39 %29.87 in10.0 miWSW (250°)11.5 mphClear
11:54 AM86.0 °F52.0 °F31 %29.87 in10.0 miWSW (250°)16.1 mph24.2 mphClear
12:54 PM88.0 °F53.1 °F30 %29.85 in10.0 miWSW (240°)16.1 mph21.9 mphClear
1:54 PM89.1 °F53.1 °F29 %29.83 in10.0 miSW (230°)17.3 mph24.2 mphClear
2:54 PM90.0 °F53.1 °F28 %29.83 in10.0 miWSW (250°)18.4 mph25.3 mphClear
3:54 PM91.0 °F51.1 °F25 %29.81 in10.0 miWSW (240°)16.1 mph25.3 mphClear
4:54 PM91.9 °F51.1 °F25 %29.80 in10.0 miWSW (240°)15.0 mph21.9 mphClear
5:54 PM91.0 °F50.0 °F24 %29.79 in10.0 miWSW (240°)15.0 mphClear
6:54 PM89.1 °F48.9 °F25 %29.78 in10.0 miWSW (240°)12.7 mph24.2 mphClear
7:54 PM84.9 °F48.9 °F29 %29.78 in10.0 miSW (230°)11.5 mphClear
8:54 PM84.0 °F48.0 °F28 %29.80 in10.0 miSW (230°)15.0 mphClear
9:54 PM82.0 °F46.9 °F29 %29.82 in10.0 miSW (230°)16.1 mph24.2 mphClear
10:54 PM80.1 °F46.9 °F31 %29.82 in10.0 miWSW (240°)16.1 mph23.0 mphClear
11:54 PM78.1 °F48.0 °F35 %29.84 in10.0 miWSW (240°)11.5 mph19.6 mphClear
Hourly data recorded from KSUS, located miles away from St. Louis, Missouri







STORIES FROM OUR PARTNERS